www.pogodaiklimat.ru

Архив погоды в Гамбурге (Германия)

Время
(UTC), дата
19 10.06
20 10.06
21 10.06
22 10.06
23 10.06
00 11.06
01 11.06
02 11.06
03 11.06
04 11.06
05 11.06
06 11.06
07 11.06
08 11.06
09 11.06
10 11.06
11 11.06
12 11.06
13 11.06
14 11.06
15 11.06
16 11.06
17 11.06
18 11.06
19 11.06
20 11.06
21 11.06
22 11.06
23 11.06
00 12.06
01 12.06
02 12.06
03 12.06
04 12.06
05 12.06
06 12.06
07 12.06
08 12.06
09 12.06
10 12.06
11 12.06
12 12.06
13 12.06
14 12.06
15 12.06
16 12.06
17 12.06
18 12.06
19 12.06
20 12.06
21 12.06
22 12.06
23 12.06
00 13.06
01 13.06
02 13.06
03 13.06
04 13.06
05 13.06
06 13.06
07 13.06
08 13.06
09 13.06
10 13.06
11 13.06
12 13.06
13 13.06
14 13.06
15 13.06
16 13.06
17 13.06
18 13.06
19 13.06
20 13.06
21 13.06
22 13.06
23 13.06
00 14.06
01 14.06
02 14.06
03 14.06
04 14.06
05 14.06
06 14.06
07 14.06
08 14.06
09 14.06
10 14.06
11 14.06
12 14.06
13 14.06
14 14.06
15 14.06
16 14.06
17 14.06
18 14.06
19 14.06
20 14.06
21 14.06
22 14.06
23 14.06
00 15.06
01 15.06
02 15.06
03 15.06
04 15.06
05 15.06
06 15.06
07 15.06
08 15.06
09 15.06
10 15.06
11 15.06
12 15.06
13 15.06
14 15.06
15 15.06
16 15.06
17 15.06
18 15.06
19 15.06
20 15.06
21 15.06
22 15.06
23 15.06
00 16.06
01 16.06
02 16.06
03 16.06
04 16.06
05 16.06
06 16.06
07 16.06
08 16.06
09 16.06
10 16.06
11 16.06
12 16.06
13 16.06
14 16.06
15 16.06
16 16.06
17 16.06
18 16.06
19 16.06
20 16.06
21 16.06
22 16.06
23 16.06
00 17.06
01 17.06
02 17.06
03 17.06
04 17.06
05 17.06
06 17.06
07 17.06
08 17.06
09 17.06
10 17.06
11 17.06
12 17.06
13 17.06
14 17.06
15 17.06
16 17.06
17 17.06
18 17.06
Ветер
(напр.,м/с)
Видим. Явления Облачность Т
(С)
Тd
(С)
f
(%)
Тe
(С)
Тes
(С)
Комфортность P
(гПа)
Po
(гПа)
Тmin
(С)
Tmax
(С)
R
(мм)
R24
(мм)
S
(см)
ЮВ 2-3 {4} 12 км слаб. дождь 10/10 720 м +12.4 +10.7 89 +11 +11 тепло 1003.2 1001.4
ЮВ 4-6 {6} 7000 м слаб. морось с дождем 9/9 270 м +11.9 +10.7 92 +10 +10 тепло 1002.9 1001.1
Ю 3-5 {7} 14 км слаб. дождь 10/10 180 м +11.5 +10.6 94 +10 +10 холодно 1002.7 1000.9 3
В 2-3 {7} 20 км в посл. час дождь 5/5 600 м +11.1 +10.4 95 +10 +10 прохладно 1002.3 1000.5
ЮВ 2-4 {4} 16 км 10/10 240 м +11.5 +10.8 95 +10 +10 прохладно 1002.1 1000.3
ЮЗ 4-6 {7} 18 км 10/10 500 м +10.6 +9.8 95 +8 +8 прохладно 1002.3 1000.5 0.5
СЗ 3-5 {6} 16 км слаб. морось 9/9 180 м +10.9 +10.4 97 +9 +9 по сезону 1002.6 1000.8
СЗ 6-9 {9} 16 км слаб. дождь 10/10 270 м +10.2 +9.3 94 +7 +7 по сезону 1003.3 1001.5
СЗ 6-9 {11} 11 км слаб. дождь 10/10 300 м +9.7 +8.7 93 +6 +6 холодно 1004.4 1002.6 1
СЗ 4-6 {10} 14 км слаб. дождь 9/9 500 м +9.9 +9.2 95 +7 +7 прохладно 1005.4 1003.6
З 4-6 {7} 23 км слаб. морось 10/10 840 м +9.8 +8.7 93 +7 +7 по сезону 1006.2 1004.4
З 4-5 {11} 24 км в посл. час дождь 9/9 930 м +10.5 +9.3 92 +8 +8 прохладно 1006.9 1005.1 +9.7 +12.6 2 11.8
З 5-7 {8} 35 км 10/10 420 м +11.3 +9.4 88 +9 +9 прохладно 1007.5 1005.7
З 5-8 {9} 22 км слаб. дождь 9/9 360 м +10.9 +9.5 91 +8 +8 по сезону 1008.5 1006.7
З 6-9 {10} 50 км в посл. час дождь 10/10 450 м +11.5 +9.8 89 +8 +8 очень холодно 1009.0 1007.2 0.7
З 3-6 {12} 55 км в посл. час дождь 10/10 330 м +12.0 +9.9 87 +10 +10 холодно 1009.5 1007.7
З 6-10 {12} 50 км в посл. час морось 10/10 800 м +14.3 +9.6 73 +12 +12 по сезону 1009.7 1007.9
З 6-10 {12} 55 км в посл. час дождь 10/10 570 м +13.1 +9.6 79 +11 +11 очень холодно 1010.3 1008.5 0.4
З 7-10 {13} >70 км в посл. час дождь 10/10 630 м +14.4 +9.9 74 +12 +12 холодно 1010.5 1008.7
З 3-5 {14} 40 км в посл. час дождь 10/10 1320 м +13.4 +11.1 86 +12 +12 холодно 1011.0 1009.2
З 7-11 {14} 55 км 9/9 960 м +14.5 +7.6 63 +13 +13 холодно 1011.4 1009.6 0.7
З 6-9 {11} 55 км в посл. час дождь 9/9 960 м +14.1 +7.5 64 +12 +12 холодно 1011.6 1009.8
З 4-7 {12} 45 км в посл. час дождь 9/9 900 м +12.6 +9.8 83 +11 +11 холодно 1012.1 1010.3
З 5-8 {14} 17 км слаб. дождь 9/9 900 м +12.0 +9.1 82 +10 +10 холодно 1012.3 1010.5 +10.5 +15.7 0.7
З 4-8 {9} 50 км в посл. час дождь 9/9 1470 м +11.7 +8.2 79 +10 +10 холодно 1012.8 1011.0
З 4-8 {10} 45 км в посл. час дождь 10/10 1500 м +11.5 +7.7 77 +9 +9 очень холодно 1013.3 1011.5
З 4-7 {10} 35 км слаб. дождь 10/10 1470 м +11.1 +8.3 83 +9 +9 холодно 1013.7 1011.9 0.0
З 4-5 {6} 45 км в посл. час дождь 10/10 1500 м +10.8 +8.1 83 +8 +8 холодно 1013.9 1012.1
З 5-8 {8} 45 км 10/10 1260 м +11.0 +8.1 82 +8 +8 прохладно 1014.1 1012.3
З 3-5 {10} 30 км слаб. морось 10/10 1500 м +10.4 +8.5 88 +8 +8 прохладно 1014.2 1012.4 0.0
ЮЗ 4-5 {7} 35 км в посл. час дождь 10/10 1500 м +9.8 +8.3 90 +7 +7 по сезону 1014.1 1012.3
З 4-6 {6} 35 км 10/10 1500 м +9.7 +8.2 90 +7 +7 по сезону 1014.3 1012.5
З 4-6 {7} 40 км в посл. час дождь 10/10 1500 м +9.7 +7.8 88 +7 +7 холодно 1014.3 1012.5 0.1
ЮЗ 4-6 {6} 35 км 10/10 1110 м +9.8 +8.3 90 +7 +7 прохладно 1014.7 1012.9
З 4-7 {7} 35 км 9/9 1080 м +9.9 +8.0 88 +7 +7 по сезону 1014.9 1013.1
ЮЗ 5-6 {7} 45 км в посл. час дождь 9/9 1410 м +10.9 +7.7 81 +8 +8 прохладно 1015.1 1013.3 +9.5 +12.1 0.0 2.5
ЮЗ 6-9 {9} 40 км в посл. час дождь 8/8 600 м +12.1 +8.3 78 +9 +10 прохладно 1015.6 1013.8
З 6-9 {10} 45 км в посл. час дождь 8/8 800 м +12.8 +7.3 69 +10 +11 по сезону 1015.6 1013.8
СЗ 8-14 {14} 12 км слаб. морось с дождем 10/10 960 м +10.4 +7.3 81 +7 +7 очень холодно 1016.0 1014.2 0.0
З 3-9 {9} 50 км в посл. час дождь 9/9 1260 м +12.6 +9.4 81 +11 +12 прохладно 1016.1 1014.3
З 7-15 {15} 15 км слаб. дождь 9/9 1000 м +10.6 +6.8 77 +7 +8 холодно 1016.4 1014.6
З 5-8 {15} 45 км в посл. час дождь 9/9 750 м +13.2 +9.1 76 +11 +12 очень холодно 1016.0 1014.2 3
З 6-9 {9} 60 км в посл. час дождь 9/9 720 м +13.2 +7.7 69 +11 +12 очень холодно 1015.9 1014.1
З 7-11 {11} 60 км в посл. час дождь 10/10 1230 м +13.3 +6.1 62 +11 +11 очень холодно 1015.8 1014.0
З 3-5 {11} 30 км слаб. дождь 10/10 840 м +11.7 +8.5 81 +10 +10 очень холодно 1016.2 1014.4 0.4
ЮЗ 4-6 {7} 60 км в посл. час дождь 9/9 840 м +13.7 +9.4 75 +12 +13 холодно 1015.8 1014.0
СЗ 4-6 {11} 50 км в посл. час дождь 9/9 800 м +12.4 +8.8 79 +10 +11 очень холодно 1016.0 1014.2
З 3-6 {11} 65 км 8/8 1050 м +12.5 +7.4 71 +11 +11 холодно 1015.9 1014.1 +9.5 +14.6 0.9
З 4-6 {8} 14 км дождь 10/10 1140 м +12.0 +7.0 71 +10 +10 холодно 1016.1 1014.3
З 3-6 {7} 55 км в посл. час дождь 10/10 1050 м +10.9 +7.1 77 +9 +9 очень холодно 1016.5 1014.7
ЮЗ 2-3 {8} 50 км 9/9 1500 м +9.3 +7.6 89 +8 +8 холодно 1016.8 1015.0 0.0
ЮЗ 3-3 {3} 55 км 10/10 1500 м +8.7 +7.1 90 +6 +6 холодно 1016.9 1015.0
З 3-4 {4} 55 км 10/0 +8.8 +6.8 87 +6 +6 холодно 1016.8 1014.9
ЮЗ 3-3 {8} 40 км 4/4 1500 м +7.8 +6.5 91 +5 +5 холодно 1016.8 1014.9
ЮЗ 3-5 {5} 40 км 8/0 +7.8 +6.5 91 +5 +5 прохладно 1016.9 1015.0
ЮЗ 3-4 {5} 40 км 3/3 1500 м +7.6 +6.4 92 +5 +5 по сезону 1016.9 1015.0
ЮЗ 2-3 {5} 40 км 5/5 800 м +7.7 +6.4 91 +6 +6 холодно 1017.0 1015.1
ЮЗ 4-5 {5} 35 км в посл. час дождь 4/4 1200 м +7.9 +6.4 90 +4 +5 холодно 1017.2 1015.3
З 4-5 {5} 45 км 9/9 1500 м +9.2 +6.5 83 +6 +6 по сезону 1017.0 1015.2
З 4-6 {6} 40 км 1/0 +10.2 +6.6 78 +8 +10 прохладно 1017.1 1015.3 +7.3 +12.7 0.0 3.9
З 4-7 {7} 50 км 9/9 720 м +11.7 +6.5 70 +10 +10 по сезону 1017.1 1015.3
З 4-6 {6} 45 км 10/10 800 м +12.1 +6.3 68 +10 +10 по сезону 1017.1 1015.3
ЮЗ 4-7 {7} 45 км в посл. час дождь 10/10 870 м +12.5 +6.9 69 +11 +11 прохладно 1017.2 1015.4 0.0
ЮЗ 6-9 {11} 45 км 10/10 930 м +13.1 +5.9 62 +11 +11 прохладно 1017.1 1015.3
З 5-8 {9} 50 км 10/10 1140 м +13.7 +6.2 60 +12 +12 по сезону 1016.9 1015.1
З 4-6 {11} 40 км в посл. час дождь 10/10 960 м +14.2 +6.0 58 +13 +13 холодно 1016.8 1015.0 0.0
ЮЗ 5-7 {8} 55 км 10/10 1110 м +13.9 +6.2 60 +12 +12 холодно 1016.8 1015.0
ЮЗ 5-7 {8} 35 км в посл. час дождь 10/10 960 м +13.8 +7.3 65 +12 +12 холодно 1016.7 1014.9
ЮЗ 3-5 {8} 40 км 10/10 1380 м +14.3 +8.0 66 +13 +13 холодно 1016.4 1014.6 0.0
ЮЗ 5-6 {7} 45 км 10/0 2000 м +13.7 +7.0 64 +12 +13 холодно 1016.1 1014.3
ЮЗ 3-4 {8} 45 км 10/0 2000 м +13.8 +6.8 63 +13 +14 прохладно 1016.0 1014.2
ЮЗ 2-3 {8} 50 км 10/10 1500 м +14.0 +7.3 64 +14 +14 прохладно 1015.5 1013.7 +10.2 +14.8
ЮВ 3-5 {5} 50 км 10/0 +14.1 +6.9 62 +13 +13 прохладно 1015.1 1013.3
ЮВ 3-5 {5} 45 км 10/0 +12.8 +7.0 68 +12 +12 прохладно 1014.9 1013.1
В 2-3 {5} 50 км 10/0 +12.8 +7.7 71 +12 +12 по сезону 1014.7 1012.9
ЮВ 3-5 {5} 50 км 10/0 +12.1 +7.8 75 +11 +11 по сезону 1014.4 1012.6
ЮВ 3-5 {5} 45 км 10/0 +12.5 +8.0 74 +11 +11 по сезону 1014.0 1012.2
ЮВ 4-6 {6} 50 км 10/0 +12.6 +7.6 72 +11 +11 по сезону 1013.2 1011.4
ЮВ 5-6 {6} 50 км 10/0 2000 м +12.4 +7.5 72 +10 +10 по сезону 1012.8 1011.0
ЮВ 5-7 {8} 45 км 10/0 2000 м +12.3 +7.5 72 +10 +10 тепло 1011.8 1010.0
ЮВ 5-6 {8} 50 км 10/0 +12.3 +7.2 71 +10 +10 по сезону 1011.4 1009.6
ЮВ 5-7 {7} 55 км 10/0 +12.5 +7.2 70 +10 +10 по сезону 1011.1 1009.3
ЮВ 5-8 {8} 60 км 10/0 2000 м +13.0 +6.7 66 +11 +11 тепло 1010.8 1009.0
ЮВ 5-7 {8} 65 км 10/0 +13.5 +7.1 65 +12 +13 по сезону 1010.3 1008.5 +12.1 +14.5
ЮВ 6-7 {8} 40 км 10/0 +14.5 +7.3 62 +13 +14 по сезону 1010.0 1008.2
Ю 6-8 {9} 55 км 10/0 +16.7 +8.2 57 +16 +18 тепло 1009.6 1007.8
Ю 6-9 {9} 55 км в посл. час дождь 10/0 2000 м +17.6 +8.2 54 +17 +20 тепло 1009.7 1007.9 0.0
ЮЗ 7-9 {10} 45 км в посл. час дождь 10/0 2000 м +20.0 +9.4 50 +21 +23 комфорт 1009.3 1007.5
Ю 6-9 {10} 50 км 9/9 1500 м +19.7 +8.6 49 +20 +21 тепло 1009.1 1007.3
Ю 5-8 {11} 55 км 10/0 2000 м +19.2 +8.5 50 +20 +24 тепло 1008.8 1007.0 0.0
Ю 6-8 {9} 60 км 10/0 2000 м +20.2 +8.5 47 +21 +24 комфорт 1008.6 1006.8
ЮВ 6-8 {10} >70 км 10/0 2000 м +19.9 +8.0 46 +21 +23 комфорт 1008.5 1006.7
Ю 7-9 {10} 55 км 10/0 +20.4 +7.8 44 +21 +22 комфорт 1008.1 1006.3
ЮВ 6-8 {10} 50 км 10/0 2000 м +20.1 +8.4 47 +21 +22 комфорт 1007.8 1006.0
Ю 6-8 {9} 60 км 9/9 1500 м +20.0 +9.2 50 +21 +21 комфорт 1007.5 1005.7
Ю 5-7 {10} 65 км 10/10 1500 м +19.7 +9.2 51 +21 +21 комфорт 1007.2 1005.4 +13.5 +21.1
Ю 5-7 {8} 55 км 10/10 1500 м +19.1 +9.7 54 +20 +20 тепло 1007.1 1005.3
ЮВ 5-7 {7} 55 км 10/10 1500 м +18.5 +10.2 58 +19 +19 тепло 1007.0 1005.2
ЮВ 5-7 {8} 55 км 9/9 1500 м +17.7 +11.1 65 +17 +17 тепло 1006.8 1005.0
ЮВ 5-7 {7} 45 км 10/0 +16.8 +11.4 70 +16 +16 тепло 1006.5 1004.7
ЮВ 4-5 {7} 50 км 6/0 +15.9 +11.4 75 +15 +15 тепло 1005.7 1003.9
ЮВ 5-7 {8} 50 км 10/10 1500 м +15.4 +11.6 78 +14 +14 тепло 1005.0 1003.2
ЮВ 4-6 {7} 45 км 10/0 +14.6 +11.5 82 +13 +13 тепло 1004.1 1002.3
В 4-6 {7} 40 км 9/0 +13.8 +11.5 86 +12 +12 тепло 1003.0 1001.2
ЮВ 5-6 {7} 40 км 10/0 +13.4 +11.4 88 +11 +11 по сезону 1002.0 1000.2
ЮВ 5-7 {7} 45 км 9/0 +13.9 +11.5 85 +12 +12 по сезону 1001.4 999.6
ЮВ 5-7 {8} 45 км 10/0 2000 м +15.3 +11.8 80 +14 +14 тепло 1000.5 998.7
ЮВ 6-10 {10} 45 км 10/10 1000 м +15.5 +12.1 80 +14 +14 по сезону 1000.0 998.2 +13.2 +19.7
Ю 6-8 {10} 19 км слаб. дождь 10/10 630 м +15.1 +13.2 88 +13 +13 по сезону 1000.0 998.2
Ю 5-8 {8} 14 км слаб. дождь 9/9 600 м +15.1 +14.0 93 +14 +14 тепло 1000.3 998.5
Ю 5-7 {10} 45 км в посл. час дождь 10/10 420 м +15.8 +14.5 92 +15 +15 по сезону 1000.2 998.4 2
ЮЗ 8-11 {11} 45 км слаб. дождь 10/10 540 м +14.9 +11.6 81 +13 +13 по сезону 1001.0 999.2
ЮЗ 7-9 {14} 60 км в посл. час дождь 9/9 800 м +16.2 +13.0 81 +15 +15 по сезону 1001.6 999.8
ЮЗ 8-12 {17} 50 км в посл. час дождь 6/6 930 м +17.4 +11.3 67 +16 +17 прохладно 1002.4 1000.6 0.8
ЮЗ 10-16 {17} 55 км 5/5 1080 м +16.8 +8.8 59 +15 +15 прохладно 1003.5 1001.7
ЮЗ 9-12 {15} 35 км 9/9 1300 м +17.7 +8.3 54 +17 +17 по сезону 1004.1 1002.3
ЮЗ 7-10 {17} 65 км в посл. час дождь 10/10 1350 м +16.8 +8.7 59 +16 +16 по сезону 1004.8 1003.0 0.2
ЮЗ 7-10 {11} 55 км в посл. час дождь 9/9 1300 м +16.6 +8.7 60 +15 +16 прохладно 1005.2 1003.4
ЮЗ 3-5 {12} 50 км в посл. час дождь 10/10 1500 м +16.3 +11.0 71 +16 +16 по сезону 1006.0 1004.2
ЮЗ 5-7 {17} 50 км в посл. час морось 4/0 +17.0 +8.5 57 +16 +17 по сезону 1006.2 1004.4 +13.7 +18.2 0.1
Ю 5-6 {9} 55 км ясно +16.8 +8.1 56 +16 +16 по сезону 1006.3 1004.5
Ю 3-5 {8} 60 км 5/0 +15.2 +8.0 62 +15 +15 по сезону 1006.6 1004.8
ЮВ 4-5 {9} 45 км 1/0 +14.9 +7.6 62 +14 +14 по сезону 1006.9 1005.1
Ю 3-4 {4} 55 км 5/0 +12.8 +7.4 70 +12 +12 по сезону 1007.0 1005.2
ЮВ 5-6 {6} 55 км 10/0 +13.2 +7.9 70 +11 +11 по сезону 1007.2 1005.4
Ю 3-4 {9} 55 км 10/0 +12.9 +7.7 71 +12 +12 тепло 1007.2 1005.4
ЮВ 4-5 {5} 50 км 10/0 +12.4 +7.8 74 +11 +11 тепло 1007.2 1005.4
ЮВ 4-5 {5} 50 км 10/0 +12.0 +7.9 76 +10 +10 тепло 1007.2 1005.4
Ю 2-3 {5} 50 км в посл. час дождь 10/10 1500 м +12.6 +8.0 74 +12 +12 по сезону 1007.4 1005.6 0.0
ЮВ 3-4 {4} 45 км в посл. час дождь 10/0 2000 м +12.2 +9.0 81 +11 +11 тепло 1007.6 1005.8
ЮВ 4-5 {5} 55 км в посл. час дождь 10/0 2000 м +13.0 +9.2 78 +11 +12 тепло 1007.5 1005.7
Ю 5-6 {6} 65 км 10/10 1500 м +14.1 +8.8 70 +12 +12 по сезону 1007.5 1005.7 +11.7 +17.4 0.3 3.5
Ю 4-5 {6} 50 км в посл. час дождь 10/10 1500 м +14.8 +9.6 71 +14 +14 тепло 1007.6 1005.8
Ю 4-6 {6} 45 км в посл. час морось 10/0 2000 м +16.6 +10.4 67 +16 +19 тепло 1007.6 1005.8
Ю 6-9 {9} 50 км 10/10 1200 м +18.1 +9.3 56 +18 +18 тепло 1007.4 1005.6 0.0
Ю 8-10 {10} 50 км 10/10 1230 м +19.5 +9.8 53 +20 +20 тепло 1007.3 1005.5
Ю 6-8 {10} 45 км 4/4 1350 м +19.4 +9.5 53 +20 +24 тепло 1007.2 1005.4
З 6-9 {10} >70 км 9/9 1320 м +17.1 +9.7 62 +16 +17 по сезону 1007.1 1005.3
ЮЗ 3-7 {8} 60 км в посл. час дождь 5/5 1500 м +19.3 +11.3 60 +21 +27 комфорт 1007.1 1005.3
Ю 3-4 {7} 40 км в посл. час дождь 9/9 1500 м +19.1 +12.9 67 +20 +21 тепло 1006.8 1005.0
Ю 5-7 {8} >70 км 10/10 1500 м +19.7 +10.3 55 +21 +21 комфорт 1006.5 1004.7 0.6
Ю 5-7 {12} 65 км в посл. час дождь 10/0 +19.6 +10.7 56 +21 +22 комфорт 1006.7 1004.9
ЮЗ 6-9 {14} 17 км слаб. дождь 10/0 2000 м +16.4 +11.7 74 +15 +16 по сезону 1007.3 1005.5
ЮЗ 5-8 {14} 40 км слаб. морось 9/0 2000 м +14.8 +12.6 87 +13 +14 по сезону 1008.1 1006.3 +14.1 +20.8 1
Ю 2-3 {6} 50 км в посл. час дождь 10/0 2000 м +15.3 +13.1 87 +15 +15 по сезону 1008.0 1006.2
ЮВ 2-3 {4} 60 км 10/10 1500 м +14.9 +13.2 90 +15 +15 тепло 1008.3 1006.5
Ю 3-4 {6} 40 км слаб. дождь 9/9 960 м +14.9 +13.4 91 +14 +14 тепло 1008.9 1007.1 0.1
Ю 3-3 {4} 40 км в посл. час дождь 9/9 570 м +14.3 +13.2 93 +13 +13 тепло 1009.0 1007.2
Ю 2-3 {4} 40 км в посл. час морось 10/0 2000 м +14.5 +13.6 94 +14 +14 тепло 1009.0 1007.2
ЮЗ 1-1 {6} 40 км 9/9 960 м +14.1 +13.1 94 +14 +14 тепло 1009.5 1007.7 1
ЮЗ 1-2 {2} 10 км 1/0 +12.4 +12.0 97 +12 +12 тепло 1009.5 1007.7
Ю 1-1 {2} 300 м туман 9/0 +11.5 +11.2 98 +11 +11 тепло 1009.7 1007.9
ЮЗ 2-2 {2} 10 км в посл. час туман 6/0 +11.2 +11.0 99 +10 +10 по сезону 1009.9 1008.1 0.0
В 1-1 {2} 7000 м в посл. час туман 9/0 +12.3 +12.0 98 +12 +12 тепло 1010.0 1008.2
ЮВ 3-5 {5} 28 км 10/0 +13.6 +12.8 95 +12 +13 тепло 1010.0 1008.2
Ю 3-3 {5} 27 км 10/0 +14.5 +13.4 93 +14 +15 тепло 1010.3 1008.5 +11.2 +15.3 3.2
ЮВ 2-3 {4} 30 км в посл. час дождь 9/0 2000 м +15.1 +13.8 92 +15 +19 тепло 1010.6 1008.8
Ю 2-3 {4} 35 км в посл. час дождь 10/0 2000 м +15.8 +14.0 89 +16 +21 тепло 1010.7 1008.9
Ю 3-5 {6} 40 км 10/10 800 м +17.2 +14.1 82 +17 +17 тепло 1011.0 1009.2 0.0
Ю 3-5 {6} 35 км 9/9 630 м +18.7 +13.7 73 +20 +21 тепло 1011.3 1009.5
ЮЗ 4-7 {8} 60 км 5/5 870 м +19.3 +11.5 61 +20 +26 тепло 1011.2 1009.4
ЮЗ 5-9 {10} 55 км 9/9 1440 м +20.9 +11.3 54 +23 +24 комфорт 1011.2 1009.4
З 4-6 {8} 50 км 10/10 1500 м +21.0 +10.7 52 +23 +23 комфорт 1011.1 1009.3
ЮЗ 7-10 {10} 55 км 9/0 +20.7 +9.8 50 +22 +24 комфорт 1011.4 1009.6
ЮЗ 6-9 {12} 50 км 10/0 +20.9 +10.9 53 +23 +25 комфорт 1011.3 1009.5
ЮЗ 4-7 {10} 65 км в посл. час дождь 10/0 +19.8 +11.4 58 +21 +23 комфорт 1011.6 1009.8
З 4-7 {7} 35 км слаб. дождь 10/0 2000 м +18.3 +11.4 64 +18 +19 тепло 1012.2 1010.4
З 1-2 {12} 40 км слаб. дождь 10/0 2000 м +17.3 +13.8 80 +18 +19 тепло 1012.1 1010.3 +14.5 +22.3 0.9
Местоположение метеостанции Гамбург (Германия): широта 53.63 долгота 10.00 высота над уровнем моря 16 м.
В архиве по умолчанию представлена погода в Гамбурге за последнюю неделю. Архивные данные за месяц целиком и за предыдущие месяцы, начиная с января 2011 года, Вы можете получить, выбрав интересующий диапазон дат из раскрывающегося списка и нажав кнопку "Найти!".
*Определитесь, кто Вы:
Внимание! Время в таблицах - всемирное. Для получения местного времени необходимо прибавить поправку, которая равна 1 ч.
Некоторые строки с данными для отдельных станций могут быть выделены курсивом. Это означает, что фактические данные отсутствуют по различным причинам, а приведенные значения являются расчетными модельными данными для данного пункта наблюдений.
Смотрите также архив погоды в соседних городах и на ближайших метеорологических станциях:
Партнеры нашего сайта:      
Пояснения к столбцам:
  • Ветер - указаны скорость ветра в м/с - средняя за 10 мин, порывы в срок и между сроками (в фигурных скобках) и направление, откуда дует ветер: С - северный,
  • СВ - северо-восточный, В - восточный, ЮВ - юго-восточный, Ю - южный, ЮЗ - юго-западный, З - западный, СЗ - северо-западный.
  • Видимость - горизонтальная дальность видимости в метрах или километрах. При видимости от 1 до 10 км при отсутствии осадков обычно наблюдается дымка, при ухудшении видимости до 1 км и менее - туман. В сухую погоду видимость может ухудшаться дымом, пылью или мглою.
  • Явления - указаны атмосферные явления, наблюдавшиеся в срок или в последний час перед сроком; фигурными скобками обозначены явления, наблюдавшиеся между сроками (за 1-3 часа до срока); квадратными скобками обозначены град или гололедные отложения с указанием их диаметра в мм.
  • Облачность - указаны через наклонную черту общая и нижняя облачность в баллах и высота нижней границы облаков в метрах; квадратными скобками обозначены формы облаков: Ci - перистые, Cs - перисто-слоистые, Cc - перисто-кучевые, Ac - высококучевые, As - высокослоистые, Sc - слоисто-кучевые, Ns - слоисто-дождевые, Cu - кучевые, Cb - кучево-дождевые. Подробнее классификацию облаков см. в Атласе облаков (PDF).
  • T - Температура воздуха - температура, измеренная на высоте 2 м над землей.
  • Td - Температура точки росы - температура, при понижении до которой содержащийся в воздухе водяной пар достигнет насыщения.
  • f - Относительная влажность воздуха - влажноcть воздуха, измеренная на высоте 2 м над землей.
  • Te - Эффективная температура - температура, которую ощущает одетый по сезону человек в тени. Характеристика душности погоды. При расчете учитывается влияние влажности воздуха и скорости ветра на теплоощущения человека.
  • Tes - Эффективная температура на солнце - температура, которую ощущает человек, с поправкой на солнечный нагрев. Характеристика знойности погоды. Зависит от высоты солнца над горизонтом, облачности и скорости ветра. Ночью, в пасмурную погоду, а также при ветре 12 м/с и более поправка равна нулю.
  • P - Атмосферное давление - приведенное к уровню моря атмосферное давление.
  • Po - Атмосферное давление - измеренное на уровне метеостанции атмосферное давление.
  • Tmin - Минимальная температура - минимум температуры воздуха на высоте 2 м над землей.
  • Tmax - Максимальная температура - максимум температуры воздуха на высоте 2 м над землей.
  • R - Количество осадков - Количество выпавших осадков за период времени, мм. При наведении курсора мыши на число - период времени, за который выпало указанное количество осадков.
  • R24 - Количество осадков - Количество выпавших осадков за 24 часа, мм.
  • S - Снежный покров - Высота снежного покрова, см. При наведении курсора мыши на число - состояние снежного покрова и степень покрытия местности в баллах.